Regional Weather Roundup
Issued by NWS Little Rock, AR

Home | Current Version | Previous Version | Graphics & Text | Print | Product List | Glossary On
Versions: 1 2 3 4 5 6 7 8 9 10 11 12 13 14 15 16 17 18 19 20 21 22 23 24 25 26 27 28 29 30 31 32 33 34 35 36 37 38 39 40 41 42 43 44 45 46 47 48 49 50
000
ASUS44 KLZK 260205
RWRLZK

WEATHER ROUNDUP FOR ARKANSAS
NATIONAL WEATHER SERVICE LITTLE ROCK AR
900 PM CDT WED APR 25 2018

NOTE: "FAIR" INDICATES FEW OR NO CLOUDS BELOW 12,000 FEET WITH NO
SIGNIFICANT WEATHER AND/OR OBSTRUCTIONS TO VISIBILITY.

ARZ001-003-010-029-260300-
NORTHWEST ARKANSAS

CITY           SKY/WX    TMP DP  RH WIND       PRES   REMARKS
FAYETTEVILLE   CLOUDY    50  49  96 W9        30.00R
FORT SMITH     LGT RAIN  53  51  93 W10       30.01S
HARRISON       CLOUDY    50  50 100 SE5       29.98S
BENTONVILLE    LGT RAIN  51  49  92 W7        30.01R
ROGERS         RAIN      50  49  96 NW9       30.00R
SILOAM SPGS    LGT RAIN  50  48  93 W9        30.01R
HIGHFILL       CLOUDY    50  48  93 W9        30.00R
SPRINGDALE     CLOUDY    50  50 100 W9        30.00R
$$

ARZ004-005-016-260300-
NORTH CENTRAL ARKANSAS

CITY           SKY/WX    TMP DP  RH WIND       PRES   REMARKS
BATESVILLE     LGT RAIN  54  53  97 CALM      29.97S
FLIPPIN        LGT RAIN  53  52  96 N3        29.99R FOG
MTN HOME       LGT RAIN  52  52 100 CALM      29.97S
$$

ARZ040-041-260300-
WEST CENTRAL ARKANSAS

CITY           SKY/WX    TMP DP  RH WIND       PRES   REMARKS
MENA           CLOUDY    54  52  94 W7        30.01S
MOUNT IDA      CLOUDY    55  54  96 NW5       29.95S
$$

ARZ009-017-025-026-028-260300-
NORTHEAST ARKANSAS

CITY           SKY/WX    TMP DP  RH WIND       PRES   REMARKS
CORNING        CLOUDY    57  54  88 W7        29.97S
JONESBORO      LGT RAIN  57  54  89 N5        29.97R
NEWPORT        LGT RAIN  56  54  93 N8        29.97S
WALNUT RIDGE   LGT RAIN  56  53  90 NW5       29.98R
BLYTHEVILLE    CLOUDY    58  53  84 NW3       29.96R
$$

ARZ022-023-033-042-044-260300-
CENTRAL ARKANSAS

CITY           SKY/WX    TMP DP  RH WIND       PRES   REMARKS
LITTLE ROCK    LGT RAIN  54  54 100 NW7       29.97R FOG
N LITTLE ROCK    N/A     53  52  98 CALM      29.95R
JACKSONVILLE   LGT RAIN  55  55  99 CALM      29.96R
CONWAY         CLOUDY    55  55 100 NE7       29.97R FOG
SEARCY         LGT RAIN  55  55 100 N6        29.97S
HOT SPRINGS    LGT RAIN  56  56 100 CALM      29.97S FOG
RUSSELLVILLE   CLOUDY    55  55 100 CALM      29.97S FOG
CLINTON        CLOUDY    54  54 100 CALM      29.98R
$$

ARZ036-260300-
EAST ARKANSAS

CITY           SKY/WX    TMP DP  RH WIND       PRES   REMARKS
WEST MEMPHIS   LGT RAIN  58  54  86 NE6       29.93F
$$

ARZ050-053-066-070-073-260300-
SOUTHWEST ARKANSAS

CITY           SKY/WX    TMP DP  RH WIND       PRES   REMARKS
ARKADELPHIA    LGT RAIN  57  56  96 CALM      29.99S FOG
CAMDEN         HVY RAIN  59  55  88 NW8       29.97R
TEXARKANA      CLOUDY    56  55  97 W13G23    30.01R
EL DORADO      LGT RAIN  61  60  97 SW8       29.97R
DE QUEEN       CLOUDY    54  52  93 W9        30.01R
$$

ARZ056-057-069-260300-
SOUTHEAST ARKANSAS

CITY           SKY/WX    TMP DP  RH WIND       PRES   REMARKS
PINE BLUFF     LGT RAIN  57  55  93 NW5       29.96R FOG
STUTTGART      RAIN      57  56  96 NW9       29.97R
MONTICELLO     LGT RAIN  59  57  93 NW3       29.93R FOG

$$





USA.gov is the U.S. government's official web portal to all federal, state and local government web resources and services.